Darstellungsparameter: Aktuell verwendete Einstellungen:
Skalierung der Graphiken ... ?
xyx+y,   Skalierungsfaktor:      Skalierung: Modus: x, Faktor: 1
Darstellungszeitraum ... ?
Vom - - bis: - -   Zeitraum: 22.04.2019 - 24.04.2019
Min/Max/Avg-Anzeige ... ?
Zeige MMA aktuell
Zeige MMA Monat
Zeige MMA alles
Zeige --A aktuell
Zeige --A Monat
Zeige --A alles
Keine MMA-Anzeige
MMA:
Average (ber die Originaldaten)
MMA-Basis: 22.04.2019 - 24.04.2019
Quicknavigation für Darstellung... ?
Tage:      1T, 2T, 3T, 5T -1T -2T -3T -5T +1T +2T +3T +5T
Wochen: 1W, 2W, 3W -1W -2W -3W +1W +2W +3W
Monate: 1M, 3M, 6M -1M -3M -6M +1M +3M +6M
Jahre:    1J, 3J, 5J, 10J -1J -3J -5J -10J +1J +3J +5J +10J
Nutze für die Darstellung ... ?
Originaldaten oder ...
Mittelwerte Minima Maxima auf...
Stundenbasis Tagesbasis Wochenbasis
Monatsbasis Jahresbasis      Datenbasis: Mittelwerte auf Stundenbasis
Darstellen als:
Statistik (Auto) Statistik J:M      Darstellung:
Zur Graphik,    zurück zur Übersicht aller Sensoren.
 
Tabellarische Datenbersicht: ?
 
Sensor: Nr:Datum:Temp:Abs-Feuchte:Windchill:Wind:
Aussen-T/F 1 22-04-2019 00:00:00 10.54167 C 7.03 g/m*3 10.54 C 0 km/h
2 22-04-2019 01:00:00 9.24167 C 6.98 g/m*3 9.24 C 0 km/h
3 22-04-2019 02:00:00 8.2 C 6.91 g/m*3 8.2 C 0.13333 km/h
4 22-04-2019 03:00:00 7.56667 C 6.83 g/m*3 7.57 C 0.13333 km/h
5 22-04-2019 04:00:00 6.64167 C 6.65 g/m*3 6.64 C 0 km/h
6 22-04-2019 05:00:00 5.89167 C 6.51 g/m*3 5.89 C 0 km/h
7 22-04-2019 06:00:00 5.475 C 6.43 g/m*3 5.48 C 0 km/h
8 22-04-2019 07:00:00 5.74167 C 6.63 g/m*3 5.74 C 0 km/h
9 22-04-2019 08:00:00 6.54167 C 6.99 g/m*3 6.54 C 0 km/h
10 22-04-2019 09:00:00 8.40833 C 7.81 g/m*3 8.41 C 0.8 km/h
11 22-04-2019 10:00:00 12.55 C 8.39 g/m*3 12.55 C 3.075 km/h
12 22-04-2019 11:00:00 17.96667 C 7.52 g/m*3 17.97 C 11.825 km/h
13 22-04-2019 12:00:00 20.89167 C 6.96 g/m*3 20.89 C 12.76667 km/h
14 22-04-2019 13:00:00 22.65 C 5.99 g/m*3 22.65 C 14.36667 km/h
15 22-04-2019 14:00:00 23.45 C 6.13 g/m*3 23.45 C 15.3 km/h
16 22-04-2019 15:00:00 24.375 C 6.32 g/m*3 24.38 C 15.03333 km/h
17 22-04-2019 16:00:00 25.49167 C 6.11 g/m*3 25.49 C 15.83333 km/h
18 22-04-2019 17:00:00 25.70833 C 5.93 g/m*3 25.71 C 12.9 km/h
19 22-04-2019 18:00:00 24.4 C 6.25 g/m*3 24.4 C 4.55833 km/h
20 22-04-2019 19:00:00 21.4 C 7.8 g/m*3 21.4 C 2 km/h
21 22-04-2019 20:00:00 19.55 C 7.24 g/m*3 19.55 C 5.50833 km/h
22 22-04-2019 21:00:00 16.975 C 7.06 g/m*3 16.98 C 3.46667 km/h
23 22-04-2019 22:00:00 15.15 C 6.63 g/m*3 15.15 C 3.74167 km/h
24 22-04-2019 23:00:00 15.04167 C 6.34 g/m*3 15.04 C 5.36667 km/h
25 23-04-2019 00:00:00 13.175 C 6.4 g/m*3 13.18 C 2.13333 km/h
Sensor: Nr:Datum:Temp:Abs-Feuchte:Windchill:Wind:
Aussen-T/F 26 23-04-2019 01:00:00 11.55 C 6.45 g/m*3 11.55 C 0.53333 km/h
27 23-04-2019 02:00:00 10.31667 C 6.42 g/m*3 10.32 C 0.66667 km/h
28 23-04-2019 03:00:00 9.7 C 6.31 g/m*3 9.7 C 0 km/h
29 23-04-2019 04:00:00 9.15833 C 6.39 g/m*3 9.16 C 0 km/h
30 23-04-2019 05:00:00 8.83333 C 6.38 g/m*3 8.83 C 0 km/h
31 23-04-2019 06:00:00 8.31667 C 6.41 g/m*3 8.32 C 0 km/h
32 23-04-2019 07:00:00 8.99167 C 6.81 g/m*3 8.99 C 0 km/h
33 23-04-2019 08:00:00 10.325 C 7.31 g/m*3 10.33 C 0 km/h
34 23-04-2019 09:00:00 12.53333 C 7.04 g/m*3 12.53 C 7.94167 km/h
35 23-04-2019 10:00:00 14.025 C 7.28 g/m*3 14.03 C 9.95833 km/h
36 23-04-2019 11:00:00 15.475 C 7.58 g/m*3 15.48 C 12.76667 km/h
37 23-04-2019 12:00:00 17.04167 C 8.01 g/m*3 17.04 C 11.56667 km/h
38 23-04-2019 13:00:00 18.89167 C 8.29 g/m*3 18.89 C 14.36667 km/h
39 23-04-2019 14:00:00 20.44167 C 8.5 g/m*3 20.44 C 13.16667 km/h
40 23-04-2019 15:00:00 21.76667 C 8.55 g/m*3 21.77 C 14.76667 km/h
41 23-04-2019 16:00:00 23.1 C 8.79 g/m*3 23.1 C 10.875 km/h
42 23-04-2019 17:00:00 23.4 C 8.97 g/m*3 23.4 C 8.475 km/h
43 23-04-2019 18:00:00 21.775 C 8.86 g/m*3 21.78 C 7.91667 km/h
44 23-04-2019 19:00:00 20.31667 C 9.21 g/m*3 20.32 C 2.93333 km/h
45 23-04-2019 20:00:00 17.975 C 9.41 g/m*3 17.98 C 0.53333 km/h
46 23-04-2019 21:00:00 16.08333 C 9.45 g/m*3 16.08 C 0.13333 km/h
47 23-04-2019 22:00:00 15.54167 C 9.44 g/m*3 15.54 C 0 km/h
48 23-04-2019 23:00:00 15.08333 C 9.3 g/m*3 15.08 C 0 km/h
49 24-04-2019 00:00:00 14.425 C 9.31 g/m*3 14.43 C 0 km/h
50 24-04-2019 01:00:00 12.65833 C 8.71 g/m*3 12.66 C 0 km/h
Sensor: Nr:Datum:Temp:Abs-Feuchte:Windchill:Wind:
Aussen-T/F 51 24-04-2019 02:00:00 11.325 C 8.48 g/m*3 11.33 C 0 km/h
52 24-04-2019 03:00:00 10.39167 C 8.33 g/m*3 10.39 C 0 km/h
53 24-04-2019 04:00:00 9.89167 C 8.28 g/m*3 9.89 C 0 km/h
54 24-04-2019 05:00:00 9.35 C 8.12 g/m*3 9.35 C 0 km/h
55 24-04-2019 06:00:00 9.1 C 8.13 g/m*3 9.1 C 0.26667 km/h
56 24-04-2019 07:00:00 9.66667 C 8.51 g/m*3 9.67 C 0 km/h
57 24-04-2019 08:00:00 11.55833 C 9.01 g/m*3 11.56 C 0 km/h
58 24-04-2019 09:00:00 13.39167 C 9.57 g/m*3 13.39 C 0 km/h
59 24-04-2019 10:00:00 16.14167 C 10.2 g/m*3 16.14 C 0 km/h
60 24-04-2019 11:00:00 18.73333 C 10.71 g/m*3 18.73 C 1.74167 km/h
61 24-04-2019 12:00:00 21.425 C 9.5 g/m*3 21.43 C 9.14167 km/h
62 24-04-2019 13:00:00 22.38333 C 9.03 g/m*3 22.38 C 9.14167 km/h
63 24-04-2019 14:00:00 23.45 C 9.01 g/m*3 23.45 C 6.05 km/h
64 24-04-2019 15:00:00 24.80833 C 8.88 g/m*3 24.81 C 6.56667 km/h
65 24-04-2019 16:00:00 25.20833 C 9.14 g/m*3 25.21 C 6.15833 km/h
66 24-04-2019 17:00:00 25.675 C 9.78 g/m*3 25.68 C 6.16667 km/h
67 24-04-2019 18:00:00 19.91667 C 9.77 g/m*3 19.92 C 24.66667 km/h
68 24-04-2019 19:00:00 13.875 C 9.24 g/m*3 13.88 C 28.94167 km/h
69 24-04-2019 20:00:00 11.34167 C 8.8 g/m*3 11.34 C 16.225 km/h
70 24-04-2019 21:00:00 9.85 C 8.55 g/m*3 9.85 C 1.86667 km/h
71 24-04-2019 22:00:00 9.16667 C 8.33 g/m*3 9.17 C 0 km/h
72 24-04-2019 23:00:00 9.00833 C 8.37 g/m*3 9.01 C 0 km/h

Maximal/Minimal-Werte vom 22.04.2019 - 24.04.2019

Sensor Min Max Avg
Temp
(Aussen-T/F)
5.4 °C
22-04-2019  06:25:00
26.6 °C
24-04-2019  17:05:00
15.09 °C
Abs-Feuchte
(Aussen-T/F)
5.93 g/m*3
22-04-2019  17:00:00
10.71 g/m*3
24-04-2019  11:00:00
7.76 g/m*3
Windchill
(Aussen-T/F)
5.48 C
22-04-2019  06:00:00
25.71 C
22-04-2019  17:00:00
14.88 C

Die Daten stammen von einer Davis Vantage Pro 2 Wetter-Station und werden unter Linux mit der Software wview2wettercgi und aufbereitet. Alle Angaben erfolgen ohne Gewähr für ihre Vollständigkeit oder Richtigkeit.
Kontakt: Rainer Krienke krienke@uni-koblenz.de . Meine Webseiten an der Uni Koblenz oder privat.
Version: $Revision: 0.78 $